Tracking 29777 objects as of 7-Oct-2024
HD Live streaming from Space Station
objects crossing your sky now

DELTA 1 DEB

Track DELTA 1 DEB now!
10-day predictions


NORAD ID: 12531
Int'l Code: 1976-077DL
Perigee: 1,498.9 km
Apogee: 1,713.9 km
Inclination: 101.7 °
Period: 118.2 minutes
Semi major axis: 7977 km
RCS: 0.0772 m2 (small)
Launch date: July 29, 1976
Source: United States (US)
Launch site: AIR FORCE WESTERN TEST RANGE (AFWTR)

Note: This is SATELLITE DEBRIS
Your satellite tracking list
Your tracking list is empty




NASA's NSSDC Master Catalog

Two Line Element Set (TLE):
1 12531U 76077DL  24280.26973770  .00000050  00000-0  86429-3 0  9993
2 12531 101.7279 101.3898 0134751 147.2900  27.3106 12.18454455972179
Source of the keplerian elements: AFSPC